Location: Beddau
(51.5575°N, 3.3561°W)
Time: 02:18:29
(UTC+00:00)

Cosmos 1869 Rocket - Pass Details

Date: 03 March 2021
Orbit: 605 x 633 km, 82.5° (Epoch: 13 April)

Event Time Altitude Azimuth Distance (km) Brightness Sun altitude
Rises 19:51:28 0° 179° (S) 2,863 6.8 -18.4°
Reaches altitude 10° 19:53:41 10° 176° (S) 1,967 6.0 -18.7°
Maximum altitude 19:57:59 62° 96° (E) 700 3.5 -19.4°
Drops below altitude 10° 20:02:21 10° 16° (NNE) 2,000 6.2 -20.0°
Sets 20:04:37 0° 14° (NNE) 2,916 7.1 -20.4°
